Change the Weather History Date:

Wednesday, January 16, 2013

  Actual Average Record
Temperature  
Mean Temperature 44 °F -  
Max Temperature 55 °F 60 °F 69 °F (2009)
Min Temperature 33 °F 41 °F 27 °F (1962)
Degree Days  
Heating Degree Days 21    
Moisture  
Dew Point 32 °F    
Average Humidity 72    
Maximum Humidity 87    
Minimum Humidity 41    
Precipitation  
Precipitation 0.00 in - - ()
Sea Level Pressure  
Sea Level Pressure 30.37 in    
Wind  
Wind Speed 1 mph (NE)    
Max Wind Speed 5 mph    
Max Gust Speed -    
Visibility 10 miles    
Events      
Averages and records for this station are not official NWS values.
T = Trace of Precipitation, MM = Missing Value Source: NWS Daily Summary

Daily Weather History Graph

Daily Weather History Graph

Search for Another Location

Airport or City:

Trip Planner

Search our weather history database for the weather conditions in past years. The results will help you decide how hot, cold, wet, or windy it might be!

Date:

Astronomy

Jan. 16, 2013 Rise Set
Actual Time 7:22 AM PST 5:16 PM PST
Civil Twilight 6:53 AM PST 5:44 PM PST
Nautical Twilight 6:21 AM PST 6:16 PM PST
Astronomical Twilight 5:50 AM PST 6:48 PM PST
Moon 10:08 AM PST (1/16) 11:04 PM PST (1/16)
Length of Visible Light 10h 50m
Length of Day
9h 54m
Waxing Crescent, 29% of the Moon is Illuminated
Jan 16
Waxing Crescent
Jan 18
First Quarter
Jan 26
Full
Feb 3
Last Quarter
Feb 9
New

Hourly Weather History & Observations

Time (PST) Temp. Windchill Dew Point Humidity Pressure Visibility Wind Dir Wind Speed Gust Speed Precip Events Conditions
12:15 AM 37.4 °F 34.9 °F 32.0 °F 81% 30.44 in 10.0 mi SW 3.5 mph - N/A   Clear
12:35 AM 37.4 °F 34.9 °F 32.0 °F 81% 30.44 in 10.0 mi South 3.5 mph - N/A   Clear
1:15 AM 37.4 °F - 30.2 °F 75% 30.45 in 10.0 mi Calm Calm - N/A   Clear
1:35 AM 37.4 °F - 30.2 °F 75% 30.45 in 10.0 mi Calm Calm - N/A   Clear
1:55 AM 37.4 °F - 30.2 °F 75% 30.45 in 10.0 mi Calm Calm - N/A   Clear
2:15 AM 37.4 °F - 30.2 °F 75% 30.45 in 10.0 mi Calm Calm - N/A   Clear
2:35 AM 37.4 °F - 30.2 °F 75% 30.45 in 10.0 mi Calm Calm - N/A   Clear
2:55 AM 37.4 °F - 30.2 °F 75% 30.45 in 10.0 mi Calm Calm - N/A   Clear
3:15 AM 37.4 °F - 30.2 °F 75% 30.44 in 10.0 mi Calm Calm - N/A   Clear
3:35 AM 37.4 °F - 30.2 °F 75% 30.44 in 10.0 mi Calm Calm - N/A   Clear
3:55 AM 37.4 °F - 30.2 °F 75% 30.44 in 10.0 mi Calm Calm - N/A   Clear
4:35 AM 35.6 °F - 30.2 °F 81% 30.43 in 10.0 mi Calm Calm - N/A   Clear
4:55 AM 35.6 °F - 30.2 °F 81% 30.43 in 10.0 mi Calm Calm - N/A   Clear
5:15 AM 35.6 °F - 30.2 °F 81% 30.42 in 10.0 mi Calm Calm - N/A   Clear
5:35 AM 35.6 °F - 30.2 °F 81% 30.42 in 10.0 mi Calm Calm - N/A   Clear
5:55 AM 35.6 °F - 30.2 °F 81% 30.42 in 10.0 mi Calm Calm - N/A   Clear
6:15 AM 35.6 °F - 30.2 °F 81% 30.42 in 10.0 mi Calm Calm - N/A   Clear
6:35 AM 37.4 °F - 32.0 °F 81% 30.42 in 10.0 mi Calm Calm - N/A   Clear
6:53 AM 33.8 °F - 30.2 °F 87% 30.42 in 20.0 mi Calm Calm - N/A   Clear
6:55 AM 33.8 °F - 30.2 °F 87% 30.42 in 10.0 mi Calm Calm - N/A   Clear
7:47 AM 35.6 °F - 32.0 °F 87% 30.42 in 20.0 mi Calm Calm - N/A   Clear
8:53 AM 39.2 °F - 32.0 °F 75% 30.43 in 10.0 mi Calm Calm - N/A   Clear
9:48 AM 44.6 °F 42.2 °F 32.0 °F 61% 30.43 in 10.0 mi North 4.6 mph - N/A   Clear
10:47 AM 44.6 °F - 35.6 °F 71% 30.41 in 10.0 mi Calm Calm - N/A   Clear
11:50 AM 48.2 °F - 32.0 °F 54% 30.38 in 10.0 mi NNE 3.5 mph - N/A   Clear
12:50 PM 51.8 °F - 33.8 °F 50% 30.34 in 10.0 mi NNE 3.5 mph - N/A   Clear
1:59 PM 53.6 °F - 32.0 °F 44% 30.32 in 10.0 mi NE 3.5 mph - N/A   Clear
2:53 PM 55.4 °F - 32.0 °F 41% 30.31 in 10.0 mi Calm Calm - N/A   Clear
3:55 PM 55.4 °F - 33.8 °F 44% 30.31 in 10.0 mi Calm Calm - N/A   Clear
4:47 PM 53.6 °F - 41.0 °F 62% 30.30 in 10.0 mi Calm Calm - N/A   Clear
5:49 PM 50.0 °F - 39.2 °F 66% 30.30 in 10.0 mi Calm Calm - N/A   Clear
6:57 PM 48.2 °F - 33.8 °F 58% 30.29 in 10.0 mi Calm Calm - N/A   Clear
7:50 PM 46.4 °F - 35.6 °F 66% 30.29 in 10.0 mi Calm Calm - N/A   Clear
8:47 PM 44.6 °F - 33.8 °F 66% 30.24 in 10.0 mi Calm Calm - N/A   Clear
9:15 PM 42.8 °F - 33.8 °F 70% 30.28 in 10.0 mi Calm Calm - N/A   Clear
9:35 PM 42.8 °F - 33.8 °F 70% 30.28 in 10.0 mi Calm Calm - N/A   Clear
9:55 PM 42.8 °F - 35.6 °F 76% 30.27 in 8.0 mi Calm Calm - N/A   Clear
10:15 PM 41.0 °F - 33.8 °F 76% 30.28 in 10.0 mi Calm Calm - N/A   Clear
10:35 PM 41.0 °F - 33.8 °F 76% 30.28 in 9.0 mi Calm Calm - N/A   Clear
10:55 PM 41.0 °F 39.0 °F 33.8 °F 76% 30.28 in 10.0 mi South 3.5 mph - N/A   Clear
11:15 PM 39.2 °F - 32.0 °F 75% 30.27 in 8.0 mi Calm Calm - N/A   Clear
11:35 PM 39.2 °F - 32.0 °F 75% 30.27 in 10.0 mi Calm Calm - N/A   Clear
11:55 PM 39.2 °F - 33.8 °F 81% 30.27 in 8.0 mi Calm Calm - N/A   Clear